Address 0x85b6320d88379f2501b66876bf92fa4eb3068743 11

Txn Hash Method
Block
From
To
Value [Txn Fee]
0x5de9920c57fb6f5a3c323de218746305c4df7f44c03cdf4e8af72e93a675de310x6549920d139713582022-09-26 3:24:241 day 23 hrs ago0x85b6320d88379f2501b66876bf92fa4eb3068743OUT0x2e1d0c56c6913fd6135f887080f7a14123a142a80 AVAX0.064629100
0x6493dae19d7c1ebbeaf5b954fc17173baa2925ffd8ff083559262a87b1f6b36d0xbef1e500139697912022-09-26 2:56:161 day 23 hrs ago0x85b6320d88379f2501b66876bf92fa4eb3068743OUT0x2e1d0c56c6913fd6135f887080f7a14123a142a80 AVAX0.026724100
0xbc98f7bbe139ef1ab57e8c50e377f51d62b6f5a457f18a420f583589ea7ad61e0x6549920d139689872022-09-26 2:42:092 days 4 mins ago0x85b6320d88379f2501b66876bf92fa4eb3068743OUT0x2e1d0c56c6913fd6135f887080f7a14123a142a80 AVAX0.0638322100
0xc90cee99234a6083a1e24dc017c091e73a87e66bcaede6573552015b07f6da350xbef1e500139676422022-09-26 2:18:352 days 28 mins ago0x85b6320d88379f2501b66876bf92fa4eb3068743OUT0x2e1d0c56c6913fd6135f887080f7a14123a142a80 AVAX0.026724100
0x118b64976543ce916db48b2d04e40a5e57fa2db65dea50cffee41eee45674fff0x6549920d139665012022-09-26 1:58:462 days 48 mins ago0x85b6320d88379f2501b66876bf92fa4eb3068743OUT0x2e1d0c56c6913fd6135f887080f7a14123a142a80 AVAX0.0649219100
0x9e400057d99a463fc67fbc5ed370eecfc1f7ea3961f71433a2afb4173d0996be0xbef1e500139654452022-09-26 1:40:282 days 1 hr ago0x85b6320d88379f2501b66876bf92fa4eb3068743OUT0x2e1d0c56c6913fd6135f887080f7a14123a142a80 AVAX0.028434100
0xef289d161da536e07b48f97050a03b07b86a21c6bdacfe6ba56077c320ca585d0x6549920d139640372022-09-26 1:15:442 days 1 hr ago0x85b6320d88379f2501b66876bf92fa4eb3068743OUT0x2e1d0c56c6913fd6135f887080f7a14123a142a80 AVAX0.066339100
0x0773ec615215bcbf53be3fb9000cf203da161da0fe4dc0b1d9901c3aa6206fcc0x6549920d139617772022-09-26 0:33:132 days 2 hrs ago0x85b6320d88379f2501b66876bf92fa4eb3068743OUT0x2e1d0c56c6913fd6135f887080f7a14123a142a80 AVAX0.0655422100
0xedae3f9aa918ad4e3e07b5f8360196ab9bc74b9c4e009dfa0c514d0810125a3f0x6549920d139595022022-09-25 23:51:502 days 2 hrs ago0x85b6320d88379f2501b66876bf92fa4eb3068743OUT0x2e1d0c56c6913fd6135f887080f7a14123a142a80 AVAX0.0649219100
0xb25563ed28538718aa0227e19f3ead1ded276d5cd49f7a496b645f4762291f440x6549920d139572032022-09-25 23:08:452 days 3 hrs ago0x85b6320d88379f2501b66876bf92fa4eb3068743OUT0x2e1d0c56c6913fd6135f887080f7a14123a142a80 AVAX0.068049100
0x50d2f85e1f3fd0ec782aa5c00e058bf7ce64a2fa469b3e360865899c753e39fb0x6549920d139548952022-09-25 22:25:432 days 4 hrs ago0x85b6320d88379f2501b66876bf92fa4eb3068743OUT0x2e1d0c56c6913fd6135f887080f7a14123a142a80 AVAX0.0655422100
0x862ce1f253a724ffac3b78b4c00721bcd02f158c33c4eef9b8696c3fb6c6e6f90x6549920d139525762022-09-25 21:42:522 days 5 hrs ago0x85b6320d88379f2501b66876bf92fa4eb3068743OUT0x2e1d0c56c6913fd6135f887080f7a14123a142a80 AVAX0.0649219100
0x8071712ccb32710dba26e2c94c07123c2d91765ef2c64db8887aeaa1876dc3420x6549920d139502572022-09-25 20:59:292 days 5 hrs ago0x85b6320d88379f2501b66876bf92fa4eb3068743OUT0x2e1d0c56c6913fd6135f887080f7a14123a142a80 AVAX0.068049100
0x86ac9a168be7985a234252f8317e48879f0e72bd945a638fa959e326546e6cfa0x6549920d139478752022-09-25 20:14:412 days 6 hrs ago0x85b6320d88379f2501b66876bf92fa4eb3068743OUT0x2e1d0c56c6913fd6135f887080f7a14123a142a80 AVAX0.0655422100
0x7645eadef0e3524b3fceff782b59a84c432785ce5a0b524ebacb3e4774bf5281Harvest139463932022-09-25 19:46:542 days 6 hrs ago0x85b6320d88379f2501b66876bf92fa4eb3068743OUT0x951accccfdf619d3cd8cfe0e4823d8e80354eb410 AVAX0.00647100
0xab2833bcd5128a733c04e8243551c1016c573a04109e6fdf29ab6b5f2ab2d8670x6549920d139455322022-09-25 19:31:012 days 7 hrs ago0x85b6320d88379f2501b66876bf92fa4eb3068743OUT0x2e1d0c56c6913fd6135f887080f7a14123a142a80 AVAX0.0649219100
0xbf693bbc9e09ee95e0c89ca7c095e516b9b944daccf2a41c583155252d427214Harvest139442042022-09-25 19:06:192 days 7 hrs ago0x85b6320d88379f2501b66876bf92fa4eb3068743OUT0x951accccfdf619d3cd8cfe0e4823d8e80354eb410 AVAX0.0081923100
0x47ab26e7ad013365d804ec4b5689ce789fe8f2766489d35f907fa3f4d79642eb0x6549920d139431142022-09-25 18:44:542 days 8 hrs ago0x85b6320d88379f2501b66876bf92fa4eb3068743OUT0x2e1d0c56c6913fd6135f887080f7a14123a142a80 AVAX0.068049100
0xbd659073ce163f53c439b304d36720008431093810da31ed087b6a5bd6870f05Harvest139419962022-09-25 18:23:532 days 8 hrs ago0x85b6320d88379f2501b66876bf92fa4eb3068743OUT0x951accccfdf619d3cd8cfe0e4823d8e80354eb410 AVAX0.00647100
0xb9ea26355a286d291dd8ba80b3c3e41175914a88799a059e5ef7f16c5d80ecd00x6549920d139407282022-09-25 17:58:462 days 8 hrs ago0x85b6320d88379f2501b66876bf92fa4eb3068743OUT0x2e1d0c56c6913fd6135f887080f7a14123a142a80 AVAX0.0672522100
0x8d69896b79675d1c7a665a8e068d1c10a8d9330e94d7f6e517fe8fb554c0b4e5Harvest139397962022-09-25 17:40:172 days 9 hrs ago0x85b6320d88379f2501b66876bf92fa4eb3068743OUT0x951accccfdf619d3cd8cfe0e4823d8e80354eb410 AVAX0.00647100
0x6be823dfc68c52d98ca83fd61ddd083989a50f090a1e8a2cc59692b559ec2a5a0x6549920d139382762022-09-25 17:10:492 days 9 hrs ago0x85b6320d88379f2501b66876bf92fa4eb3068743OUT0x2e1d0c56c6913fd6135f887080f7a14123a142a80 AVAX0.0666319100
0x0207f4909396b16f59a30cc13edeb6133f5e6bedb7cd30001c60a3ad56eeec97Harvest139374872022-09-25 16:55:052 days 9 hrs ago0x85b6320d88379f2501b66876bf92fa4eb3068743OUT0x951accccfdf619d3cd8cfe0e4823d8e80354eb410 AVAX0.00647100
0x53f97cb07d8633f869d5bd0c06f09e61f647458138d10132245882c0825edda50x4ea4c6b3139363412022-09-25 16:24:512 days 10 hrs ago0x85b6320d88379f2501b66876bf92fa4eb3068743OUT0x2e1d0c56c6913fd6135f887080f7a14123a142a80 AVAX0.0212157100
0xcfabaa46a6fad7af569309356736d677f4c7d0c89afd38e91c1fa0f75784830a0xab07211e139358152022-09-25 16:07:202 days 10 hrs ago0x85b6320d88379f2501b66876bf92fa4eb3068743OUT0x2e1d0c56c6913fd6135f887080f7a14123a142a80 AVAX0.0210672100
[ Download CSV Export 
Parent Txn Hash Block From To Value
Loading

Contract Name:
0

Compiler Version
0

Optimization Enabled:
0

Other Settings:
-NA-
Block Transaction Gas Used Reward
Age Block Fee Address BC Fee Address Voting Power Jailed Incoming
Block Uncle Number Difficulty Gas Used Reward
Loading